Regional Weather Roundup
Issued by NWS Huntsville, AL

Home | Current Version | Previous Version | Text Only | Print | Product List | Glossary On
Versions: 1 2 3 4 5 6 7 8 9 10 11 12 13 14 15 16 17 18 19 20 21 22 23 24 25 26 27 28 29 30 31 32 33 34 35 36 37 38 39 40 41 42 43 44 45 46 47 48 49 50
000
ASUS44 KHUN 070410
RWRHUN

WEATHER ROUNDUP FOR THE TENNESSEE VALLEY
NATIONAL WEATHER SERVICE HUNTSVILLE AL
1000 PM CST FRI MAR 06 2015

ALZ001>004-070500-
NORTHWEST ALABAMA

CITY           SKY/WX    TMP DP  RH WIND       PRES   REMARKS
COURTLAND HCN    N/A     29  32 100 CALM        N/A
RUSSELLVILLE     N/A     25 N/A N/A MISG        N/A
SHOALS AIRPORT CLEAR     31  25  78 CALM      30.50S
SHOALS TVA RES   N/A     28 N/A N/A MISG        N/A
$$

ALZ005>007-016-070500-
NORTH CENTRAL ALABAMA

CITY           SKY/WX    TMP DP  RH WIND       PRES   REMARKS
DECATUR AP     CLEAR     28  24  85 CALM      30.49F
HUNTSVILLE AP  CLEAR     31  26  82 CALM      30.48F
HUN NWS/UAH      N/A     29  22  76 CALM        N/A
MERIDIANVILLE  CLEAR     28  23  80 CALM      30.48F
REDSTONE ARSN  CLEAR     27  23  84 NW1       30.48S
VINEMONT AP    FAIR      24  21  88 CALM      30.48F
$$

ALZ008>010-070500-
NORTHEAST ALABAMA

CITY           SKY/WX    TMP DP  RH WIND       PRES   REMARKS
ALBERTVILLE    CLEAR     30  25  80 CALM      30.45F
FORT PAYNE     CLEAR     28  21  74 CALM      30.46S
SCOTTSBORO AP  CLEAR     28  23  80 CALM      30.49S
SCOTTSBORO HCN   N/A     27 N/A N/A MISG        N/A
VALLEY HEAD      N/A     27 N/A N/A MISG        N/A
$$

TNZ076-096-097-070500-
SOUTHEASTERN MIDDLE TENNESSEE

CITY           SKY/WX    TMP DP  RH WIND       PRES   REMARKS
TULLAHOMA      CLEAR     25  21  86 CALM        N/A
WINCHESTER     CLEAR     25  21  86 CALM      30.48R
$$

...SURROUNDING SITES...

CITY           SKY/WX    TMP DP  RH WIND       PRES   REMARKS
ATLANTA        PTCLDY    38  26  62 NW5       30.42S WCI  34
ANNISTON       CLEAR     36  19  50 NE3       30.47S
BIRMINGHAM     CLEAR     32  17  54 CALM      30.49F
CHATTANOOGA    CLEAR     32  25  75 CALM      30.47R
CORINTH        FAIR      28  21  74 CALM      30.48F
DALTON         CLEAR     28  27  93 CALM      30.46S
GADSDEN        CLEAR     27  21  80 CALM      30.46F
GOLDEN TRNGL   CLEAR     30  25  80 NW3       30.48F
HALEYVILLE       N/A     24  22  92 CALM      30.49F
JACKSON TN     CLEAR     24  16  71 CALM      30.48S
LEWISBURG      FAIR      23  20  89 CALM      30.47S
MEMPHIS        CLEAR     28  20  71 S6        30.48F WCI  22
MURFREESBORO   FAIR      28  22  78 CALM      30.47F
NASHVILLE      CLEAR     27  20  75 S5        30.48S WCI  22
OXFORD MS      FAIR      25  23  93 CALM      30.51S
ROME           CLEAR     30  27  88 CALM      30.45S
SAVANNAH       CLEAR     25  21  86 CALM      30.48F
TUPELO         CLEAR     29  23  78 CALM      30.50S
TUSCALOOSA     CLEAR     33  20  58 N6        30.50S WCI  28
$$

...GULF COAST WEATHER...

CITY           SKY/WX    TMP DP  RH WIND       PRES   REMARKS
GULFPORT       MOCLDY    44  20  38 N5        30.47R
PASCAGOULA     MOCLDY    40  26  57 N5        30.47R
MOBILE         MOCLDY    41  20  43 N7        30.47S
GULF SHORES    MOCLDY    43  31  63 N5        30.46S
PENSACOLA      MOCLDY    46  31  55 N6        30.44S
DESTIN         MOCLDY    47  35  63 N8        30.43S
PANAMA CITY    MOCLDY    46  41  83 NE7       30.43R
APPALACHICOLA  CLOUDY    50  40  68 NE13      30.40S
$$



USA.gov is the U.S. government's official web portal to all federal, state and local government web resources and services.